Regional Weather Roundup
Issued by NWS

Home | Current Version | Previous Version | Text Only | Print | Product List | Glossary Off
Versions: 1 2 3 4 5 6 7 8 9 10 11 12 13 14 15 16 17 18 19 20 21 22 23 24 25 26 27 28 29 30 31 32 33 34 35 36 37 38 39 40 41 42 43 44 45 46 47 48 49 50

666
ASUS43 KFSD 222102
RWRSD

WEATHER ROUNDUP FOR SOUTH DAKOTA
NATIONAL WEATHER SERVICE SIOUX FALLS SD
400 PM CDT TUE AUG 22 2017

NOTE: "FAIR" INDICATES FEW OR NO CLOUDS BELOW 12,000 FEET WITH NO
SIGNIFICANT WEATHER AND/OR OBSTRUCTIONS TO VISIBILITY.


SDZ001>005-009-010-012>017-222200-
NORTHWEST AND NORTH CENTRAL SOUTH DAKOTA

CITY           SKY/WX    TMP DP  RH WIND       PRES   REMARKS
BUFFALO          N/A     84  40  21 MISG      30.09F
FAITH            N/A     82  43  25 NW5       30.16F
MOBRIDGE       SUNNY     78  48  34 CALM      30.14F
$$

SDZ012>016-024>037-041>051-057-063-072>074-222200-
SOUTHWEST AND SOUTH CENTRAL SOUTH DAKOTA

CITY           SKY/WX    TMP DP  RH WIND       PRES   REMARKS
RAPID CTY ARPT SUNNY     84  46  26 S13       30.15F
PIERRE         SUNNY     79  45  29 VRB5      30.15F
CUSTER         SUNNY     75  45  34 SE12G20   30.28F
ELLSWORTH AFB  SUNNY     84  46  26 S15       30.14F
PHILIP         SUNNY     84  45  25 S6        30.13F
PINE RIDGE     SUNNY     84  45  25 SW13      30.19F
SPEARFISH      LGT RAIN  81  41  24 NE7G15    30.19F
WINNER         FAIR      80  47  31 N5        30.19F
$$

SDZ004>011-016>023-039-040-222200-
NORTHEAST SOUTH DAKOTA

CITY           SKY/WX    TMP DP  RH WIND       PRES   REMARKS
ABERDEEN       SUNNY     77  43  29 NW14      30.14F
WATERTOWN      SUNNY     72  48  42 NW14      30.14F
BROOKINGS      SUNNY     72  48  42 N14       30.16F
SISSETON         N/A     75  49  39 NW17      30.10F
$$

SDZ017-020-022-023-036>040-048>070-222200-
SOUTHEAST SOUTH DAKOTA

CITY           SKY/WX    TMP DP  RH WIND       PRES   REMARKS
SIOUX FALLS    MOSUNNY   76  48  37 N14       30.16F
HURON          SUNNY     77  44  30 NW15      30.15F
CHAMBERLAIN    SUNNY     78  49  36 CALM      30.18F
MITCHELL       SUNNY     77  44  30 NW8       30.16F
YANKTON        SUNNY     75  47  36 W12       30.18F
$$

ABBREVIATIONS USED IN REMARKS
   TC - TEMPERATURE IN CELSIUS
  WCI - WIND CHILL INDEX
   HX - HEAT INDEX
  VSB - VISIBILITY





USA.gov is the U.S. government's official web portal to all federal, state and local government web resources and services.